[[{"header":{"parameterUnit":"m.s-1","parameterCategory":1,"la1":30.2991,"la2":30.254,"lo1":-89.0895,"lo2":-89.0444,"dy":0.0017,"dx":0.0017,"nx":28,"ny":28,"refTime":"2025-02-05T03:00:00:Z","depth":0,"parameterNumber":2,"parameterNumberName":"U-component_of_WINDS"},"data":[0,0,0,0,0,0,0,0,0,0,0,0,0,0,0,0,0,0,0,0,0,0,0,0,0,0,0,0,0,0,0,0,0,0,0,0,0,0,0,0,0,0,0,0,0,0,0,0,0,0,0,0,0,0,0,0,0,0,0.2041,0.2041,0,0.2116,0.2117,0.2118,0.2177,0.2177,0.2178,0.2179,0.2255,0.2257,0.2258,0,0,0,0,0,0,0,0,0,0,0,0,0,0.1946,0.1947,0.204,0.2041,0.2042,0.2116,0.2117,0.2118,0.2177,0.2178,0.2178,0.2179,0.2255,0.2256,0.2258,0,0,0,0,0,0,0,0,0,0,0,0,0,0.2001,0.1948,0.204,0.2081,0.2085,0.2116,0.2117,0.2118,0.2177,0.2178,0.2178,0.2179,0.2254,0.2256,0.2258,0.2255,0,0,0.2265,0.2266,0,0,0,0,0,0,0,0,0.1997,0.2004,0.2074,0.2078,0.2083,0.2138,0.2112,0.2164,0.2176,0.2142,0.2179,0.218,0.2215,0.2221,0.2233,0.2259,0.2262,0.2265,0.2267,0.2268,0.2268,0,0,0,0,0,0,0,0.1994,0.2001,0.207,0.2075,0.208,0.2094,0.2103,0.2122,0.2173,0.2145,0.2149,0.2158,0.2218,0.2231,0.2235,0.2263,0.2265,0.2267,0.2269,0.227,0.2288,0.2288,0,0,0,0,0,0,0.1984,0.1998,0.2068,0.2073,0.2041,0.2095,0.2105,0.2119,0.2173,0.2182,0.2157,0.216,0.2227,0.2233,0.2238,0.2237,0.2268,0.227,0.2271,0.2289,0.2288,0.2287,0,0,0,0,0,0,0.1981,0.1989,0.2065,0.2036,0.2047,0.2096,0.2112,0.212,0.2133,0.2182,0.2191,0.216,0.2227,0.2235,0.225,0.2241,0.2271,0.2273,0.229,0.2289,0.2288,0.2235,0,0,0,0,0,0,0.1978,0.1988,0.1988,0.2036,0.2048,0.2076,0.2111,0.2121,0.2137,0.2142,0.2188,0.2196,0.2229,0.2247,0.2252,0.2244,0.2275,0.2291,0.229,0.2288,0.2238,0.2232,0.2227,0,0,0,0,0,0.1975,0.197,0.1987,0.1996,0.2049,0.2075,0.2082,0.212,0.2136,0.2136,0.2167,0.2195,0.2241,0.2248,0.2255,0.2247,0.2292,0.229,0.2288,0.224,0.2233,0.2227,0,0,0,0,0,0,0.1919,0.1977,0.1997,0.2007,0.2036,0.2085,0.2086,0.2112,0.2136,0.214,0.2185,0.2195,0.2205,0.2228,0.2234,0.2246,0.227,0.2269,0.2231,0.2225,0.2219,0.2213,0.2277,0,0,0,0,0,0.1908,0.1925,0.1974,0.1979,0.1992,0.2036,0.2049,0.2076,0.2107,0.2119,0.2152,0.218,0.2202,0.2214,0.2237,0.2241,0.2252,0.2239,0.2234,0.2229,0.2228,0.2232,0.2226,0.2281,0.2281,0.2281,0,0,0.1885,0.1919,0.1927,0.1968,0.1994,0.2009,0.2046,0.2062,0.2074,0.2122,0.2138,0.2162,0.2198,0.2207,0.2213,0.2226,0.2215,0.2227,0.2223,0.2224,0.2229,0.2224,0.2219,0.228,0.228,0.228,0,0,0.1852,0.1879,0.1885,0.191,0.1948,0.1977,0.1978,0.2024,0.2042,0.2059,0.2095,0.211,0.2145,0.2169,0.2185,0.216,0.2186,0.2166,0.2138,0.214,0.2136,0.2132,0.2122,0.2118,0.2164,0.2164,0.2164,0,0.1818,0.1844,0.1885,0.1899,0.1915,0.196,0.1966,0.1988,0.203,0.2041,0.2055,0.21,0.2127,0.2142,0.2136,0.2148,0.2151,0.216,0.2133,0.213,0.2127,0.2118,0.2115,0.2162,0.2162,0.2162,0.2162,0,0.1801,0.1818,0.1819,0.1859,0.1876,0.1886,0.1928,0.194,0.1965,0.1993,0.2009,0.2043,0.2072,0.2078,0.2103,0.2096,0.2103,0.2125,0.215,0.2119,0.2111,0.2108,0.2158,0.2159,0.2159,0.216,0,0,0.1734,0.1797,0.1796,0.1815,0.186,0.1873,0.1885,0.1914,0.1923,0.1951,0.1961,0.199,0.201,0.2028,0.2056,0.2058,0.2035,0.208,0.2081,0.2069,0.2029,0.2012,0.2008,0.2053,0.2052,0.2052,0.2026,0,0.1707,0.1731,0.1768,0.1778,0.1794,0.1836,0.1846,0.1874,0.19,0.1917,0.1946,0.1965,0.1991,0.2002,0.2007,0.2037,0.2027,0.2039,0.2062,0.2062,0.2051,0.2004,0.1986,0.196,0.2023,0.2023,0.2023,0,0.1679,0.1704,0.1717,0.1759,0.1768,0.1776,0.1805,0.1821,0.1853,0.1872,0.1892,0.1922,0.1936,0.1959,0.1978,0.1985,0.1996,0.2013,0.2013,0.2016,0.204,0.2005,0.1953,0.1948,0.2019,0.2019,0.2019,0,0.1628,0.1665,0.1677,0.1692,0.1742,0.1747,0.1768,0.1802,0.1816,0.1842,0.1851,0.1878,0.1892,0.1911,0.1948,0.1961,0.1962,0.1988,0.1977,0.1976,0.1975,0.1975,0.1923,0.1984,0.1984,0.1984,0.1984,0,0.1593,0.1599,0.1655,0.1662,0.167,0.1712,0.1718,0.1743,0.1772,0.1784,0.1823,0.1833,0.1881,0.1897,0.1926,0.1936,0.1943,0.1958,0.1965,0.1954,0.1952,0.1962,0.1964,0.1983,0.1983,0.1983,0.1983,0,0.1537,0.1575,0.1591,0.1637,0.1649,0.1652,0.1692,0.17,0.1729,0.1744,0.175,0.1794,0.1815,0.1853,0.1885,0.1904,0.1908,0.1921,0.1897,0.1901,0.1888,0.1888,0.1841,0.1836,0.19,0.1899,0.1898,0,0.1513,0.1518,0.1565,0.1576,0.1596,0.1613,0.1628,0.167,0.1684,0.1721,0.1725,0.1749,0.177,0.1801,0.1836,0.186,0.1874,0.1855,0.1878,0.1866,0.1873,0.1871,0.1872,0.185,0.1849,0.1848,0.1848,0,0.1464,0.1482,0.1503,0.153,0.1547,0.157,0.1595,0.1602,0.1649,0.1663,0.1685,0.1701,0.1733,0.1756,0.1786,0.1807,0.1835,0.1841,0.1839,0.1827,0.1813,0.182,0.1882,0.1841,0.1842,0.1842,0.1843,0.1843,0.1423,0.1429,0.1463,0.1484,0.1507,0.153,0.1539,0.1569,0.1588,0.1617,0.1641,0.1661,0.1692,0.1734,0.1754,0.177,0.1783,0.1781,0.1781,0.1779,0.1774,0.1811,0.1776,0.1776,0.1776,0.1776,0.1776,0,0.1375,0.1399,0.1418,0.1452,0.1468,0.1494,0.1523,0.1534,0.1551,0.1579,0.1599,0.1624,0.1646,0.1682,0.1707,0.1713,0.1726,0.1718,0.1718,0.1722,0.1762,0.176,0.1707,0.1707,0.1707,0.1707,0.1707,0.1707,0.1352,0.1364,0.1386,0.141,0.1434,0.1453,0.1468,0.1488,0.151,0.1536,0.1555,0.1578,0.1609,0.1637,0.1658,0.1668,0.1675,0.1663,0.1676,0.1713,0.1719,0.1725,0.1724,0.1664,0.1664,0.1636,0.1635,0.1635]},{"header":{"parameterUnit":"m.s-1","parameterCategory":1,"la1":30.2991,"la2":30.254,"lo1":-89.0895,"lo2":-89.0444,"dy":0.0017,"dx":0.0017,"nx":28,"ny":28,"refTime":"2025-02-05T03:00:00:Z","depth":0,"parameterNumber":3,"parameterNumberName":"V-component_of_WINDS"},"data":[0,0,0,0,0,0,0,0,0,0,0,0,0,0,0,0,0,0,0,0,0,0,0,0,0,0,0,0,0,0,0,0,0,0,0,0,0,0,0,0,0,0,0,0,0,0,0,0,0,0,0,0,0,0,0,0,0,0,0.8337,0.8337,0,0.8305,0.8305,0.8305,0.8291,0.8291,0.8292,0.8292,0.8257,0.8256,0.8255,0,0,0,0,0,0,0,0,0,0,0,0,0,0.8386,0.8385,0.8338,0.8337,0.8337,0.8305,0.8305,0.8304,0.8291,0.8291,0.8292,0.8292,0.8257,0.8256,0.8255,0,0,0,0,0,0,0,0,0,0,0,0,0,0.836,0.8385,0.8338,0.8326,0.8325,0.8305,0.8305,0.8304,0.8291,0.8291,0.8292,0.8292,0.8257,0.8256,0.8255,0.8243,0,0,0.825,0.8249,0,0,0,0,0,0,0,0,0.8362,0.8359,0.8329,0.8327,0.8326,0.8303,0.8309,0.8284,0.8291,0.8304,0.8292,0.8292,0.8272,0.8269,0.8263,0.8241,0.824,0.825,0.8249,0.8248,0.8248,0,0,0,0,0,0,0,0.8364,0.836,0.8325,0.8328,0.8326,0.8322,0.8319,0.8304,0.8288,0.8303,0.8302,0.8298,0.8271,0.8264,0.8262,0.8239,0.825,0.8249,0.8248,0.8247,0.8206,0.8206,0,0,0,0,0,0,0.8367,0.8361,0.8326,0.8324,0.8345,0.8322,0.8318,0.831,0.8288,0.8285,0.8298,0.8298,0.8267,0.8264,0.8261,0.8245,0.8248,0.8247,0.8246,0.8206,0.8206,0.8206,0,0,0,0,0,0,0.8369,0.8364,0.8327,0.8342,0.8337,0.8321,0.8312,0.8309,0.8302,0.8284,0.8281,0.8295,0.8267,0.8263,0.8247,0.8244,0.8246,0.8245,0.8207,0.8206,0.8206,0.8215,0,0,0,0,0,0,0.837,0.8365,0.8361,0.8342,0.8337,0.8315,0.8312,0.8308,0.83,0.8299,0.828,0.8277,0.8266,0.825,0.8246,0.8242,0.8244,0.8207,0.8206,0.8206,0.8215,0.8215,0.8215,0,0,0,0,0,0.8372,0.8364,0.8361,0.8356,0.8331,0.8315,0.8312,0.83,0.83,0.8295,0.8284,0.8277,0.8245,0.8248,0.8244,0.8239,0.8207,0.8207,0.8206,0.8215,0.8215,0.8215,0,0,0,0,0,0,0.8382,0.8362,0.8357,0.8344,0.8331,0.8313,0.8307,0.8301,0.8288,0.8287,0.8273,0.8269,0.8255,0.8246,0.825,0.8227,0.8225,0.8224,0.8234,0.8234,0.8234,0.8236,0.8242,0,0,0,0,0,0.8383,0.8372,0.8354,0.8344,0.8338,0.8324,0.8316,0.8309,0.8295,0.8289,0.8276,0.8263,0.8249,0.8241,0.8228,0.8213,0.8209,0.8208,0.8208,0.8209,0.8208,0.8199,0.8199,0.8205,0.8205,0.8205,0,0,0.8384,0.8372,0.8366,0.8346,0.8335,0.8324,0.8319,0.8307,0.8298,0.8287,0.8272,0.8262,0.8246,0.8231,0.8224,0.8223,0.8205,0.8208,0.8208,0.8207,0.8199,0.8198,0.8198,0.8204,0.8204,0.8204,0,0,0.8381,0.837,0.8361,0.835,0.8334,0.8325,0.8322,0.8305,0.8298,0.8283,0.8274,0.8263,0.8241,0.8229,0.8221,0.8213,0.8207,0.8209,0.821,0.8202,0.8201,0.8201,0.8198,0.8197,0.8208,0.8208,0.8208,0,0.8384,0.8367,0.8356,0.8345,0.8336,0.8326,0.8316,0.8306,0.8286,0.828,0.8279,0.8251,0.8239,0.8222,0.822,0.8213,0.821,0.8211,0.8202,0.8202,0.8201,0.8198,0.8197,0.8208,0.8208,0.8208,0.8208,0,0.8372,0.8361,0.8354,0.8337,0.8327,0.8317,0.8303,0.8295,0.8288,0.8278,0.8263,0.8248,0.8232,0.8227,0.822,0.8209,0.8209,0.8205,0.8203,0.8201,0.8198,0.8197,0.8209,0.8209,0.8209,0.8209,0,0,0.8374,0.8351,0.8349,0.834,0.8322,0.8313,0.8301,0.8286,0.8279,0.8266,0.8256,0.8237,0.8233,0.8224,0.8215,0.8208,0.8203,0.8205,0.8205,0.8205,0.8189,0.8192,0.8191,0.8199,0.8198,0.8198,0.819,0,0.8369,0.8349,0.8338,0.8322,0.8311,0.8301,0.8291,0.8278,0.8269,0.8258,0.8247,0.8234,0.823,0.8224,0.8217,0.8205,0.8199,0.8205,0.8188,0.8188,0.8193,0.8189,0.8192,0.8186,0.8189,0.8189,0.8189,0,0.8359,0.8347,0.833,0.8313,0.8308,0.83,0.8285,0.8274,0.8259,0.8253,0.8242,0.8234,0.8221,0.822,0.8201,0.8206,0.8198,0.8191,0.8191,0.8189,0.8188,0.8187,0.8183,0.8182,0.8187,0.8187,0.8187,0,0.8363,0.8342,0.8329,0.8322,0.8302,0.8296,0.8288,0.8273,0.8264,0.8251,0.8245,0.823,0.8222,0.821,0.8198,0.8199,0.8181,0.8179,0.8175,0.8175,0.8171,0.8172,0.8166,0.8166,0.8166,0.8166,0.8166,0,0.8357,0.8348,0.833,0.8323,0.8311,0.8299,0.8287,0.8278,0.8265,0.8254,0.8244,0.8235,0.8219,0.8207,0.8198,0.8184,0.818,0.8174,0.8172,0.8175,0.8176,0.817,0.817,0.8166,0.8166,0.8166,0.8166,0,0.8359,0.8348,0.8333,0.8315,0.8311,0.8303,0.8288,0.8279,0.8269,0.8256,0.8252,0.8236,0.8222,0.8209,0.8189,0.8183,0.8169,0.8165,0.8174,0.8172,0.8169,0.8169,0.8159,0.8157,0.8159,0.8159,0.8159,0,0.8357,0.8349,0.8331,0.8324,0.8315,0.8304,0.8295,0.8282,0.8274,0.8256,0.825,0.8235,0.8222,0.82,0.8186,0.8171,0.8167,0.8165,0.8165,0.8169,0.8167,0.8168,0.8167,0.8165,0.8165,0.8165,0.8165,0,0.8354,0.8348,0.8337,0.8323,0.8313,0.8301,0.8289,0.8284,0.8268,0.8259,0.8245,0.8235,0.8215,0.82,0.8184,0.8174,0.8167,0.8165,0.8163,0.8167,0.8172,0.8169,0.8174,0.8165,0.8165,0.8165,0.8165,0.8165,0.8353,0.8346,0.8332,0.8319,0.8309,0.8298,0.8289,0.8279,0.8267,0.825,0.8243,0.8228,0.8213,0.8191,0.8181,0.8169,0.8167,0.8165,0.8164,0.8163,0.8164,0.8174,0.8166,0.8166,0.8166,0.8166,0.8165,0,0.835,0.834,0.8329,0.8313,0.8302,0.8297,0.8283,0.8275,0.8263,0.825,0.8237,0.8221,0.8206,0.8191,0.8176,0.8169,0.8165,0.8165,0.8166,0.8163,0.8166,0.817,0.8169,0.8169,0.8169,0.8169,0.8169,0.8169,0.8347,0.8334,0.8327,0.8309,0.8299,0.8285,0.8278,0.8268,0.8257,0.8239,0.8227,0.8218,0.8204,0.8187,0.8174,0.817,0.8164,0.8165,0.816,0.8163,0.8163,0.8163,0.8166,0.8164,0.8164,0.8158,0.8158,0.8158]}]]